Weather History for KAMN - March, 2013

Change the Weather History Date:

Thursday, March 14, 2013

  Actual Average Record
Temperature  
Mean Temperature 29 °F -  
Max Temperature 38 °F 39 °F 77 °F (2012)
Min Temperature 20 °F 24 °F 1 °F (1993)
Degree Days  
Heating Degree Days 36    
Moisture  
Dew Point 18 °F    
Average Humidity 62    
Maximum Humidity 85    
Minimum Humidity 43    
Precipitation  
Precipitation 0.00 in - - ()
Sea Level Pressure  
Sea Level Pressure 30.18 in    
Wind  
Wind Speed 6 mph (West)    
Max Wind Speed 12 mph    
Max Gust Speed 18 mph    
Visibility 10 miles    
Events      
Averages and records for this station are not official NWS values.
T = Trace of Precipitation, MM = Missing Value Source: NWS Daily Summary

Daily Weather History Graph

Daily Weather History Graph

Search for Another Location

Airport or City:

Trip Planner

Search our weather history database for the weather conditions in past years. The results will help you decide how hot, cold, wet, or windy it might be!

Date:

Astronomy

Mar. 14, 2013 Rise Set
Actual Time 7:52 AM EDT 7:44 PM EDT
Civil Twilight 7:23 AM EDT 8:12 PM EDT
Nautical Twilight 6:50 AM EDT 8:45 PM EDT
Astronomical Twilight 6:17 AM EDT 9:19 PM EDT
Moon 8:59 AM EDT (3/14) 11:06 PM EDT (3/14)
Length of Visible Light 12h 48m
Length of Day
11h 51m
Waxing Crescent, 9% of the Moon is Illuminated
Mar 14
Waxing Crescent
Mar 19
First Quarter
Mar 27
Full
Apr 3
Last Quarter
Apr 10
New

Hourly Weather History & Observations

Time (EDT) Temp. Windchill Dew Point Humidity Pressure Visibility Wind Dir Wind Speed Gust Speed Precip Events Conditions
12:15 AM 25.0 °F 18.1 °F 13.1 °F 61% 30.19 in 10.0 mi West 5.8 mph - N/A   Clear
12:36 AM 25.2 °F 18.3 °F 13.3 °F 61% 30.19 in 10.0 mi West 5.8 mph - N/A   Clear
12:55 AM 25.0 °F 18.1 °F 12.9 °F 60% 30.20 in 10.0 mi West 5.8 mph - N/A   Clear
1:15 AM 24.3 °F 16.3 °F 13.8 °F 64% 30.20 in 10.0 mi West 6.9 mph - N/A   Clear
1:35 AM 24.1 °F 17.0 °F 13.3 °F 63% 30.20 in 10.0 mi West 5.8 mph - N/A   Clear
1:55 AM 22.8 °F 18.2 °F 13.5 °F 67% 30.21 in 10.0 mi WNW 3.5 mph - N/A   Clear
2:16 AM 23.5 °F 16.4 °F 13.8 °F 66% 30.21 in 10.0 mi WNW 5.8 mph - N/A   Clear
3:11 AM 22.8 °F 16.7 °F 13.1 °F 66% 30.22 in 10.0 mi NW 4.6 mph - N/A   Clear
3:31 AM 22.6 °F - 13.5 °F 68% 30.22 in 10.0 mi Calm Calm - N/A   Clear
3:51 AM 21.9 °F 17.2 °F 14.5 °F 73% 30.22 in 10.0 mi West 3.5 mph - N/A   Clear
4:11 AM 22.1 °F - 15.3 °F 75% 30.21 in 10.0 mi Calm Calm - N/A   Clear
4:31 AM 21.6 °F 16.8 °F 15.3 °F 77% 30.21 in 10.0 mi West 3.5 mph - N/A   Clear
4:51 AM 21.2 °F 14.9 °F 14.7 °F 76% 30.21 in 10.0 mi West 4.6 mph - N/A   Clear
5:12 AM 21.4 °F 15.1 °F 14.5 °F 75% 30.22 in 10.0 mi West 4.6 mph - N/A   Clear
5:32 AM 21.2 °F 16.4 °F 15.6 °F 79% 30.22 in 10.0 mi West 3.5 mph - N/A   Clear
5:52 AM 21.2 °F 14.9 °F 16.5 °F 82% 30.21 in 10.0 mi West 4.6 mph - N/A   Clear
6:12 AM 21.0 °F 16.2 °F 16.5 °F 83% 30.21 in 10.0 mi West 3.5 mph - N/A   Clear
6:32 AM 21.0 °F 14.6 °F 16.2 °F 81% 30.22 in 10.0 mi WNW 4.6 mph - N/A   Clear
6:52 AM 20.5 °F 15.6 °F 16.7 °F 85% 30.22 in 10.0 mi West 3.5 mph - N/A   Clear
7:12 AM 20.8 °F 16.0 °F 16.2 °F 82% 30.22 in 10.0 mi West 3.5 mph - N/A   Clear
7:32 AM 20.7 °F 14.2 °F 15.8 °F 81% 30.22 in 10.0 mi West 4.6 mph - N/A   Clear
7:52 AM 20.3 °F 13.8 °F 15.8 °F 83% 30.23 in 10.0 mi West 4.6 mph - N/A   Clear
8:13 AM 20.5 °F 14.0 °F 15.8 °F 82% 30.23 in 10.0 mi West 4.6 mph - N/A   Clear
8:33 AM 22.3 °F 17.6 °F 17.4 °F 82% 30.23 in 10.0 mi WNW 3.5 mph - N/A   Clear
8:53 AM 24.3 °F 17.3 °F 18.1 °F 77% 30.24 in 10.0 mi West 5.8 mph - N/A   Clear
9:13 AM 25.3 °F 17.6 °F 18.7 °F 76% 30.24 in 10.0 mi West 6.9 mph - N/A   Clear
9:33 AM 26.6 °F 19.1 °F 18.1 °F 70% 30.25 in 10.0 mi WNW 6.9 mph - N/A   Clear
9:53 AM 27.9 °F 20.6 °F 18.3 °F 67% 30.25 in 10.0 mi WNW 6.9 mph - N/A   Clear
10:13 AM 28.4 °F 20.4 °F 18.7 °F 67% 30.25 in 10.0 mi West 8.1 mph - N/A   Clear
10:33 AM 29.7 °F 22.0 °F 19.0 °F 65% 30.25 in 10.0 mi West 8.1 mph - N/A   Clear
10:53 AM 30.4 °F 22.9 °F 19.0 °F 63% 30.25 in 10.0 mi WNW 8.1 mph - N/A   Clear
11:14 AM 30.9 °F 23.5 °F 18.3 °F 60% 30.24 in 10.0 mi WNW 8.1 mph - N/A   Clear
11:34 AM 31.6 °F 23.7 °F 18.1 °F 57% 30.24 in 10.0 mi West 9.2 mph - N/A   Clear
11:54 AM 32.0 °F 24.2 °F 18.1 °F 57% 30.23 in 10.0 mi NW 9.2 mph - N/A   Clear
12:14 PM 32.4 °F 24.6 °F 17.2 °F 54% 30.23 in 10.0 mi NW 9.2 mph - N/A   Clear
12:34 PM 33.6 °F 26.2 °F 18.7 °F 54% 30.22 in 10.0 mi West 9.2 mph - N/A   Clear
12:54 PM 33.4 °F 25.4 °F 17.4 °F 52% 30.21 in 10.0 mi West 10.4 mph - N/A   Clear
1:14 PM 33.8 °F 27.7 °F 17.2 °F 51% 30.21 in 10.0 mi WNW 6.9 mph - N/A   Clear
1:34 PM 35.1 °F 28.6 °F 18.3 °F 51% 30.20 in 10.0 mi WSW 8.1 mph - N/A   Clear
1:55 PM 34.9 °F 27.1 °F 18.0 °F 50% 30.19 in 10.0 mi WSW 10.4 mph - N/A   Clear
2:15 PM 35.4 °F 29.0 °F 17.6 °F 48% 30.19 in 10.0 mi WSW 8.1 mph - N/A   Clear
2:35 PM 36.3 °F 28.4 °F 18.9 °F 49% 30.18 in 10.0 mi West 11.5 mph - N/A   Clear
2:55 PM 36.5 °F 29.2 °F 18.7 °F 49% 30.17 in 10.0 mi West 10.4 mph - N/A   Clear
3:15 PM 36.5 °F 29.7 °F 19.0 °F 49% 30.17 in 10.0 mi West 9.2 mph - N/A   Clear
3:55 PM 37.6 °F 30.0 °F 19.8 °F 49% 30.16 in 10.0 mi WSW 11.5 mph 18.4 mph N/A   Clear
4:15 PM 37.9 °F 32.1 °F 19.2 °F 47% 30.16 in 10.0 mi West 8.1 mph - N/A   Clear
4:35 PM 37.9 °F 32.1 °F 19.4 °F 47% 30.15 in 10.0 mi West 8.1 mph - N/A   Clear
4:56 PM 38.3 °F 31.4 °F 18.5 °F 45% 30.15 in 10.0 mi West 10.4 mph - N/A   Clear
5:16 PM 38.3 °F 31.4 °F 17.6 °F 43% 30.14 in 10.0 mi WNW 10.4 mph - N/A   Clear
5:36 PM 38.3 °F 30.9 °F 17.8 °F 44% 30.14 in 10.0 mi WSW 11.5 mph 18.4 mph N/A   Clear
5:51 PM 38.3 °F 31.9 °F 18.9 °F 46% 30.13 in 10.0 mi West 9.2 mph - N/A   Clear
6:11 PM 37.9 °F 30.9 °F 18.9 °F 46% 30.11 in 10.0 mi West 10.4 mph - N/A   Clear
6:31 PM 37.6 °F 32.3 °F 18.9 °F 47% 30.11 in 10.0 mi WSW 6.9 mph - N/A   Clear
6:51 PM 37.4 °F 31.4 °F 18.5 °F 46% 30.11 in 10.0 mi West 8.1 mph - N/A   Clear
7:11 PM 36.9 °F 31.4 °F 18.3 °F 47% 30.11 in 10.0 mi WSW 6.9 mph - N/A   Clear
7:32 PM 35.6 °F 28.6 °F 18.9 °F 51% 30.11 in 10.0 mi West 9.2 mph - N/A   Clear
7:52 PM 34.7 °F 28.1 °F 19.6 °F 54% 30.11 in 10.0 mi WSW 8.1 mph - N/A   Clear
8:12 PM 33.6 °F 26.8 °F 19.6 °F 56% 30.09 in 10.0 mi SW 8.1 mph - N/A   Clear
8:32 PM 33.1 °F 28.7 °F 20.3 °F 59% 30.09 in 10.0 mi WSW 4.6 mph - N/A   Clear
8:52 PM 32.4 °F 26.0 °F 20.5 °F 62% 30.09 in 10.0 mi WSW 6.9 mph - N/A   Clear
9:12 PM 32.0 °F 27.5 °F 20.7 °F 63% 30.09 in 10.0 mi WSW 4.6 mph - N/A   Clear
9:32 PM 31.1 °F 26.4 °F 21.2 °F 67% 30.09 in 10.0 mi SW 4.6 mph - N/A   Clear
9:52 PM 31.6 °F 24.4 °F 20.3 °F 63% 30.08 in 10.0 mi SW 8.1 mph - N/A   Clear
10:12 PM 31.1 °F 26.4 °F 20.1 °F 64% 30.07 in 10.0 mi WSW 4.6 mph - N/A   Clear
10:33 PM 30.6 °F 25.8 °F 20.1 °F 65% 30.07 in 10.0 mi WSW 4.6 mph - N/A   Clear
10:53 PM 30.6 °F 24.7 °F 19.4 °F 63% 30.06 in 10.0 mi SW 5.8 mph - N/A   Clear
11:13 PM 30.2 °F 22.6 °F 19.2 °F 64% 30.06 in 10.0 mi WSW 8.1 mph - N/A   Clear
11:33 PM 30.2 °F 23.4 °F 19.4 °F 64% 30.05 in 10.0 mi WSW 6.9 mph - N/A   Clear
11:53 PM 30.2 °F 24.3 °F 20.1 °F 66% 30.06 in 10.0 mi WSW 5.8 mph - N/A   Clear